This is the latest recevied weather packets stored in our database for station/object G7UKK-10. If no packets are shown the sender has not sent any weather packets the latest 10 day(s).
| Time | Temp. | Humidity | Pressure | Rain* | Wind** | Luminosity | Snow |
|---|---|---|---|---|---|---|---|
| 1777470016 | 15.56° C | 46% | 1030.4 hPa | 0 mm | - | - | - |
| 1777469116 | 15° C | 44% | 1030.5 hPa | 0 mm | - | - | - |
| 1777468216 | 15.56° C | 46% | 1030.7 hPa | 0 mm | - | - | - |
| 1777467316 | 15.56° C | 47% | 1030.5 hPa | 0 mm | - | - | - |
| 1777466416 | 15° C | 50% | 1030.6 hPa | 0 mm | - | - | - |
| 1777465516 | 15° C | 48% | 1030.7 hPa | 0 mm | - | - | - |
| 1777464616 | 15.56° C | 51% | 1030.6 hPa | 0 mm | - | - | - |
| 1777463716 | 15° C | 52% | 1030.7 hPa | 0 mm | - | - | - |
| 1777462816 | 15° C | 52% | 1030.8 hPa | 0 mm | - | - | - |
| 1777461916 | 14.44° C | 54% | 1030.9 hPa | 0 mm | - | - | - |
| 1777461016 | 13.89° C | 55% | 1030.5 hPa | 0 mm | - | - | - |
| 1777460116 | 13.89° C | 55% | 1030.9 hPa | 0 mm | - | - | - |
| 1777459216 | 13.89° C | 57% | 1030.8 hPa | 0 mm | - | - | - |
| 1777458316 | 13.33° C | 60% | 1031 hPa | 0 mm | - | - | - |
| 1777457416 | 12.78° C | 62% | 1030.9 hPa | 0 mm | - | - | - |
| 1777456516 | 12.22° C | 63% | 1030.9 hPa | 0 mm | - | - | - |
| 1777455616 | 12.22° C | 65% | 1031.2 hPa | 0 mm | - | - | - |
| 1777454716 | 11.67° C | 67% | 1031.1 hPa | 0 mm | - | - | - |
| 1777453816 | 11.67° C | 68% | 1031.5 hPa | 0 mm | - | - | - |
| 1777452916 | 11.11° C | 71% | 1031.1 hPa | 0 mm | - | - | - |
| 1777452016 | 10.56° C | 75% | 1031.4 hPa | 0 mm | - | - | - |
| 1777451116 | 9.44° C | 77% | 1031.8 hPa | 0 mm | - | - | - |
| 1777450216 | 9.44° C | 77% | 1031.5 hPa | 0 mm | - | - | - |
| 1777449316 | 9.44° C | 78% | 1031.7 hPa | 0 mm | - | - | - |
| 1777448416 | 8.33° C | 80% | 1031.4 hPa | 0 mm | - | - | - |
* Rain latest hour (hover to see other rain measurements)
** Current wind speed in m/s (hover to see current wind gust speed)